Content
SEND FEEDBACK

Daily
Averages
Monthly
Summary
United States of America

BEACON, NEW YORK


Home > North America > United States > New York
Elevation: 272 feet     Latitude: 41 31N     Longitude: 073 55W

WEATHER
 
SELECT A DAY
Number of Records: 194,613;   Date Range: 1/1/95 - 8/28/14
 
SHARE

PRINT THIS DATA

[ ← Previous Day ]
WEATHER ALMANAC - MAY 22, 2013
[ Next Day → ]
[ °C ]   °F
Weather ElementAverageHighLow
Temperature73.2 °F81 °F (5:53 pm)64 °F (5:53 am)
Dewpoint64.8 °F69.1 °F (7:53 pm)59 °F (4:53 am)
Humidity75.5 %88 % (4:15 am)61 % (4:29 pm)
Barometer29.84 in29.90 in (9:37 am)29.79 in (5:53 pm)
Wind Speed6.1 mph12.7 mph (4:53 am)
Wind Gust20.7 mph (4:53 am)
Weather ElementAverage
Visibility8.1 mi
Wind DirectionSE (138.1 °)

Weather ElementTotal
Precipitation---
Cooling Degree Days7.5 (Base 65)
Growing Degree Days22.5 (Base 50)
Averaged from 31 records on May 22, 2013
WEATHER CONDITIONS BREAKOUT
WIND DIRECTION BREAKOUT
WEATHER BY HOUR - MAY 22, 2013
[ °C ]   °F
Local TimeTemperatureDewpointHumidityBarometerVisibilityWind DirectionWind SpeedGust SpeedPrecipitationEventsConditions
1:53 AM72.0 °F66.0 °F81 %29.82 in8.0 miESE (120°)6.9 mphClear
2:38 AM73.4 °F66.2 °F78 %29.84 in9.0 miSSE (150°)4.6 mphOvercast
2:53 AM73.0 °F66.0 °F79 %29.83 in9.0 miSE (130°)6.9 mphOvercast
3:53 AM72.0 °F66.0 °F81 %29.83 in8.0 miVariable4.6 mphThunderstormOvercast
4:15 AM66.2 °F62.6 °F88 %29.86 in8.0 miEast (80°)8.1 mphOvercast
4:53 AM64.9 °F59.0 °F81 %29.86 in10.0 miESE (120°)12.7 mph20.7 mphOvercast
5:53 AM64.0 °F59.0 °F84 %29.87 in10.0 miSE (130°)5.8 mphOvercast
6:53 AM64.0 °F59.0 °F84 %29.88 in10.0 miSE (140°)4.6 mphOvercast
7:53 AM64.9 °F59.0 °F81 %29.88 in10.0 miSE (140°)5.8 mphOvercast
8:53 AM66.0 °F60.1 °F81 %29.88 in10.0 miSSE (160°)8.1 mphOvercast
9:37 AM66.2 °F60.8 °F83 %29.90 in10.0 miSouth (170°)6.9 mphOvercast
9:53 AM66.9 °F60.1 °F79 %29.90 in10.0 miSouth (190°)6.9 mphOvercast
10:53 AM69.1 °F62.1 °F78 %29.89 in8.0 miSSE (150°)6.9 mphOvercast
11:53 AM72.0 °F64.0 °F76 %29.88 in8.0 miSSE (150°)5.8 mphOvercast
12:53 PM73.9 °F64.9 °F73 %29.88 in9.0 miWSW (250°)6.9 mphOvercast
1:30 PM73.4 °F64.4 °F73 %29.86 in8.0 miSSW (210°)3.5 mphScattered Clouds
1:53 PM75.9 °F66.0 °F71 %29.84 in8.0 miCalmScattered Clouds
2:53 PM78.1 °F68.0 °F71 %29.83 in8.0 miSouth (170°)5.8 mphClear
3:53 PM80.1 °F68.0 °F67 %29.82 in9.0 miSouth (170°)4.6 mphClear
4:29 PM80.6 °F66.2 °F61 %29.83 in9.0 miSouth (180°)8.1 mphThunderstormThunderstorm
4:31 PM80.6 °F66.2 °F61 %29.83 in9.0 miSouth (170°)6.9 mphClear
4:32 PM80.6 °F66.2 °F61 %29.83 in9.0 miSouth (180°)5.8 mphThunderstormThunderstorm
4:49 PM80.6 °F66.2 °F61 %29.82 in9.0 miVariable6.9 mphClear
4:53 PM80.6 °F68.0 °F65 %29.81 in9.0 miSouth (190°)6.9 mphClear
5:53 PM81.0 °F66.9 °F62 %29.79 in7.0 miSouth (190°)9.2 mphClear
6:53 PM80.1 °F68.0 °F67 %29.80 in5.0 miSSE (160°)8.1 mphHaze
7:53 PM78.1 °F69.1 °F74 %29.80 in4.0 miSSE (160°)5.8 mphHaze
8:53 PM73.9 °F68.0 °F82 %29.81 in5.0 miSE (140°)5.8 mphHaze
9:53 PM72.0 °F68.0 °F87 %29.83 in4.0 miSE (130°)5.8 mphClear
10:53 PM72.0 °F68.0 °F87 %29.83 in5.0 miSSE (150°)5.8 mphClear
11:53 PM72.0 °F66.9 °F84 %29.84 in5.0 miCalmHaze
Hourly data recorded from KPOU, located miles away from Beacon, New York







STORIES FROM OUR PARTNERS